AAL458 KCLT-MROC

Flight info

Callsign AAL458
Flight time N/A
Altitude 36000
Route ICONS5 NOOKS DCT OMN DCT SMYRA DCT MALET DCT MLB DCT TRV DCT MCLAW Y442 FUNDI DCT ALVEK UM328 SELEK UZ403 PIRAS BARRA4P
Aircraft B38M/M-SDE1FGHILORVWXY/HB1

Departure

Time N/A
Airport Charlotte Douglas International Airport (KCLT)

Arrival

Time 2026-04-30 19:19
Airport Juan Santamaría International Airport (MROC)
Time Latitude Longitude Altitude Speed Heading
2026-04-30 15:00 35.21863 -80.94173 735 ft 0 kts 258°
2026-04-30 17:39 20.71967 -82.05254 35980 ft 475 kts 212°
2026-04-30 17:42 20.43025 -82.22094 35969 ft 474 kts 212°
2026-04-30 17:43 20.28585 -82.30470 35968 ft 473 kts 211°
2026-04-30 17:44 20.11268 -82.40486 35957 ft 472 kts 210°
2026-04-30 17:46 19.95148 -82.44783 35969 ft 480 kts 194°
2026-04-30 17:47 19.82183 -82.47728 35966 ft 477 kts 194°
2026-04-30 17:48 19.59430 -82.52881 35964 ft 474 kts 194°
2026-04-30 17:50 19.33687 -82.58693 35960 ft 473 kts 194°
2026-04-30 17:52 19.14495 -82.63014 35955 ft 468 kts 194°
2026-04-30 17:54 18.87069 -82.69171 35952 ft 460 kts 195°
2026-04-30 17:56 18.62019 -82.74777 35940 ft 459 kts 195°
2026-04-30 17:58 18.43434 -82.78924 35934 ft 457 kts 195°
2026-04-30 18:00 18.18523 -82.84469 35944 ft 455 kts 195°
2026-04-30 18:01 18.03020 -82.87912 35945 ft 456 kts 195°
2026-04-30 18:02 17.84386 -82.92042 35936 ft 456 kts 195°
2026-04-30 18:04 17.65802 -82.96152 35935 ft 456 kts 195°
2026-04-30 18:06 17.41073 -83.01608 35936 ft 454 kts 195°
2026-04-30 18:08 17.19421 -83.06373 35935 ft 455 kts 195°
2026-04-30 18:10 16.94611 -83.11818 35932 ft 455 kts 195°
2026-04-30 18:11 16.72899 -83.16572 35926 ft 457 kts 194°
2026-04-30 18:13 16.57372 -83.19964 35919 ft 457 kts 194°
2026-04-30 18:14 16.41773 -83.23367 35925 ft 458 kts 194°
2026-04-30 18:15 16.23103 -83.27433 35913 ft 458 kts 194°
2026-04-30 18:16 16.10597 -83.30152 35926 ft 459 kts 194°
2026-04-30 18:17 16.04338 -83.31495 35926 ft 459 kts 194°
2026-04-30 18:18 15.94968 -83.33469 35917 ft 459 kts 194°
2026-04-30 18:18 15.88705 -83.34789 35906 ft 459 kts 194°
2026-04-30 18:19 15.82502 -83.36096 35922 ft 456 kts 194°
2026-04-30 18:19 15.76288 -83.37404 35923 ft 456 kts 194°
2026-04-30 18:20 15.70064 -83.38714 35917 ft 456 kts 194°
2026-04-30 18:20 15.63839 -83.40023 35922 ft 456 kts 194°
2026-04-30 18:21 15.57623 -83.41329 35922 ft 456 kts 194°
2026-04-30 18:21 15.51396 -83.42636 35913 ft 455 kts 193°
2026-04-30 18:22 15.45240 -83.43928 35910 ft 454 kts 193°
2026-04-30 18:22 15.35947 -83.45877 35916 ft 454 kts 194°
2026-04-30 18:23 15.29747 -83.47177 35910 ft 454 kts 194°
2026-04-30 18:23 15.23552 -83.48474 35905 ft 454 kts 194°
2026-04-30 18:24 15.14309 -83.50408 35900 ft 451 kts 193°
2026-04-30 18:25 15.08151 -83.51696 35901 ft 451 kts 193°
2026-04-30 18:25 14.98915 -83.53626 35887 ft 451 kts 193°
2026-04-30 18:26 14.89630 -83.55564 35890 ft 454 kts 193°
2026-04-30 18:27 14.80383 -83.57494 35886 ft 451 kts 193°
2026-04-30 18:28 14.71176 -83.59412 35883 ft 449 kts 193°
2026-04-30 18:28 14.61978 -83.61328 35883 ft 449 kts 193°
2026-04-30 18:29 14.49712 -83.63879 35881 ft 449 kts 193°
2026-04-30 18:30 14.37480 -83.66421 35885 ft 449 kts 193°
2026-04-30 18:31 14.28285 -83.68330 35881 ft 449 kts 193°
2026-04-30 18:32 14.19126 -83.70230 35879 ft 449 kts 193°
2026-04-30 18:33 14.09927 -83.72136 35872 ft 447 kts 194°
2026-04-30 18:33 14.00782 -83.74030 35878 ft 446 kts 194°
2026-04-30 18:34 13.91694 -83.75910 35874 ft 446 kts 194°
2026-04-30 18:35 13.85599 -83.77170 35876 ft 446 kts 194°
2026-04-30 18:35 13.79511 -83.78428 35861 ft 446 kts 194°
2026-04-30 18:36 13.70396 -83.80311 35860 ft 443 kts 194°
2026-04-30 18:37 13.61358 -83.82176 35861 ft 443 kts 194°
2026-04-30 18:37 13.55309 -83.83423 35865 ft 443 kts 194°
2026-04-30 18:38 13.49254 -83.84671 35867 ft 443 kts 194°
2026-04-30 18:38 13.43232 -83.85912 35869 ft 443 kts 194°
2026-04-30 18:39 13.37187 -83.87157 35865 ft 442 kts 195°
2026-04-30 18:39 13.31135 -83.88402 35867 ft 442 kts 195°
2026-04-30 18:40 13.25098 -83.89644 35873 ft 442 kts 195°
2026-04-30 18:40 13.19101 -83.90877 35870 ft 442 kts 195°
2026-04-30 18:41 13.13064 -83.92117 35864 ft 443 kts 194°
2026-04-30 18:41 13.07014 -83.93360 35863 ft 443 kts 194°
2026-04-30 18:42 13.00981 -83.94598 35860 ft 441 kts 194°
2026-04-30 18:42 12.91941 -83.96453 35868 ft 441 kts 194°
2026-04-30 18:45 12.59867 -84.03022 35870 ft 442 kts 194°
2026-04-30 18:46 12.53835 -84.04256 35871 ft 442 kts 194°
2026-04-30 18:46 12.47802 -84.05489 35865 ft 442 kts 194°
2026-04-30 18:47 12.41776 -84.06720 35869 ft 442 kts 194°
2026-04-30 18:47 12.35783 -84.07944 35859 ft 442 kts 194°
2026-04-30 18:48 12.29731 -84.09179 35859 ft 445 kts 194°
2026-04-30 18:48 12.23655 -84.10419 35856 ft 445 kts 194°
2026-04-30 18:49 12.17579 -84.11658 35871 ft 445 kts 194°
2026-04-30 18:49 12.11503 -84.12897 35856 ft 445 kts 194°
2026-04-30 18:50 12.05426 -84.14135 35860 ft 445 kts 194°
2026-04-30 18:50 11.99388 -84.15364 35857 ft 445 kts 194°
2026-04-30 18:51 11.93318 -84.16600 35851 ft 445 kts 194°
2026-04-30 18:51 11.87232 -84.17838 35842 ft 445 kts 194°
2026-04-30 18:52 11.81166 -84.19071 35856 ft 445 kts 194°
2026-04-30 18:52 11.75079 -84.20309 35856 ft 445 kts 194°
2026-04-30 18:53 11.69004 -84.21543 35844 ft 445 kts 194°
2026-04-30 18:53 11.62964 -84.22770 35851 ft 445 kts 194°
2026-04-30 18:54 11.56872 -84.24006 35852 ft 446 kts 194°
2026-04-30 18:54 11.50778 -84.25243 35854 ft 446 kts 194°
2026-04-30 18:55 11.44697 -84.26476 35853 ft 446 kts 194°
2026-04-30 18:55 11.35644 -84.28311 35859 ft 446 kts 194°
2026-04-30 18:56 11.26531 -84.30158 35860 ft 446 kts 194°
2026-04-30 18:57 11.17391 -84.32008 35863 ft 446 kts 193°
2026-04-30 18:57 11.11387 -84.33223 35640 ft 430 kts 194°
2026-04-30 18:58 11.05560 -84.34401 34449 ft 431 kts 193°
2026-04-30 18:58 11.02617 -84.34996 33880 ft 431 kts 193°
2026-04-30 18:58 10.99678 -84.35591 33301 ft 429 kts 193°
2026-04-30 18:59 10.93845 -84.36769 32246 ft 424 kts 193°
2026-04-30 19:00 10.85409 -84.39196 30670 ft 417 kts 200°
2026-04-30 19:00 10.82694 -84.40097 30194 ft 413 kts 200°
2026-04-30 19:00 10.77355 -84.41839 29105 ft 392 kts 200°
2026-04-30 19:01 10.72270 -84.43487 28231 ft 379 kts 199°
2026-04-30 19:01 10.69754 -84.44313 27756 ft 378 kts 200°
2026-04-30 19:02 10.64776 -84.45971 26903 ft 374 kts 200°
2026-04-30 19:02 10.59888 -84.47597 26085 ft 370 kts 200°
2026-04-30 19:03 10.55008 -84.49219 25267 ft 368 kts 200°
2026-04-30 19:03 10.50183 -84.50822 24474 ft 366 kts 200°
2026-04-30 19:04 10.45346 -84.52428 23574 ft 368 kts 199°
2026-04-30 19:04 10.40432 -84.54059 22394 ft 374 kts 199°
2026-04-30 19:05 10.35464 -84.55707 21257 ft 377 kts 199°
2026-04-30 19:05 10.30437 -84.57373 20096 ft 382 kts 198°
2026-04-30 19:06 10.25328 -84.59068 18860 ft 388 kts 198°
2026-04-30 19:06 10.22755 -84.59920 18271 ft 390 kts 198°
2026-04-30 19:06 10.17605 -84.61619 16998 ft 391 kts 195°
2026-04-30 19:07 10.12346 -84.61242 16073 ft 384 kts 153°
2026-04-30 19:07 10.10091 -84.59814 15650 ft 380 kts 149°
2026-04-30 19:08 10.05732 -84.57140 14820 ft 351 kts 149°
2026-04-30 19:08 10.02402 -84.53783 13935 ft 330 kts 128°
2026-04-30 19:08 10.01032 -84.51969 13558 ft 319 kts 128°
2026-04-30 19:09 9.98439 -84.48526 12803 ft 300 kts 128°
2026-04-30 19:09 9.97186 -84.46857 12455 ft 296 kts 127°
2026-04-30 19:09 9.95935 -84.45192 12106 ft 297 kts 127°
2026-04-30 19:10 9.93438 -84.41867 11401 ft 298 kts 127°
2026-04-30 19:10 9.90929 -84.38527 10683 ft 296 kts 127°
2026-04-30 19:11 9.89686 -84.36873 10423 ft 293 kts 126°
2026-04-30 19:11 9.87496 -84.33445 9743 ft 290 kts 103°
2026-04-30 19:11 9.87462 -84.31419 9310 ft 291 kts 76°
2026-04-30 19:12 9.88148 -84.29501 8980 ft 285 kts 69°
2026-04-30 19:12 9.88843 -84.27650 8648 ft 276 kts 70°
2026-04-30 19:12 9.89505 -84.25877 8361 ft 268 kts 69°
2026-04-30 19:13 9.90770 -84.22467 7874 ft 246 kts 69°
2026-04-30 19:13 9.91914 -84.19343 7357 ft 228 kts 69°
2026-04-30 19:13 9.92459 -84.17858 7109 ft 221 kts 68°
2026-04-30 19:14 9.92984 -84.16430 6898 ft 212 kts 68°
2026-04-30 19:14 9.93488 -84.15053 6647 ft 206 kts 69°
2026-04-30 19:14 9.93973 -84.13726 6432 ft 195 kts 68°
2026-04-30 19:14 9.94442 -84.12479 6246 ft 184 kts 64°
2026-04-30 19:15 9.95080 -84.11379 6123 ft 180 kts 50°
2026-04-30 19:15 9.97157 -84.10080 5656 ft 177 kts 12°
2026-04-30 19:15 9.98385 -84.10013 5380 ft 177 kts 355°
2026-04-30 19:16 9.99554 -84.10351 5204 ft 169 kts 338°
2026-04-30 19:16 10.00499 -84.10986 5083 ft 161 kts 322°
2026-04-30 19:16 10.01671 -84.12949 4561 ft 169 kts 289°
2026-04-30 19:17 10.01838 -84.14138 4220 ft 172 kts 273°
2026-04-30 19:17 10.01021 -84.16432 3704 ft 169 kts 248°
2026-04-30 19:17 10.00632 -84.17538 3441 ft 162 kts 248°
2026-04-30 19:18 9.99989 -84.19286 3180 ft 157 kts 246°
2026-04-30 19:18 9.99476 -84.20641 3005 ft 141 kts 248°
2026-04-30 19:18 9.99205 -84.21362 2970 ft 79 kts 249°
2026-04-30 19:19 9.99115 -84.21696 2946 ft 24 kts 313°
2026-04-30 19:19 9.99195 -84.21673 2951 ft 12 kts 66°